STARLINK-11188, 60722

Orbit data source: Space-Track

STARLINK-11188, 60722 is a payload satellite owned by SpaceX/Seattle (US) in LEO that was launched on Wed, 28 Aug 2024 UTC via an FALCON 9 launch vehicle from the Air Force Eastern Test Range (AFETR). Payload-class satellites include a variety of spacecraft equipped with specific instruments for various scientific and technological missions. These include communications satellites like Starlink; space stations such as the ISS; scientific satellites like the Hubble; Earth observation satellites from companies like Planet Labs, Umbra, and HawkEye 360; GPS; miniature CubeSats for education and research; and military/defense satellites.

Loading next visibility...
Identifier
60722, 2024-152C
Orbit
LEO
Country
Flag of USUS
Related business
Manufacturer
SpaceX/Seattle
Mission
Operational Commercial Communications
Bus & Motor
STARLINK V2MD, Unknown motor
Mass
960 kg wet, ~910 kg dry
Launch date (UTC)
2024-08-28 (2 years ago)
Launch vehicle
FALCON 9
Launch site
Air Force Eastern Test Range (AFETR)
Object type
Payload
Rocket body
Debris
Shape & HBR
Box + 2 Pan, 18.1 m
Radar Cross Section
36.964 m², Large (>1 m²)

Expand to show TLE details & history
Last TLE update: 17 hours ago

TLE from 17 hours ago
0 STARLINK-11188
1 60722U 24152C   26171.14219056 -.00000629  00000-0 -32831-6 0  9998
2 60722  53.1591 331.4023 0001713  73.6391 286.4815 15.69708241105047
Epoch: 2026-06-20T03:24Z
TLE epoch observation values (Epoch: 2026-06-20T03:24:45.264Z)
Latitude
-0.00003°
Longitude
11.85262°
Altitude
360.319 km
Speed
7.695 km/s
True Right ascension
22h 05m 36s
True Declination
0° 00' 00"
Sunlit
Object was in full shadow at epoch
Visualization orbit readout
Latitude
Unknown
Longitude
Unknown
Altitude
Unknown
Speed
Unknown
Apparent Right ascension
Unknown
Apparent Declination
Unknown
Sunlit
N/A
Visualization observer readout
Local Sidereal Time
07:18:43
Azimuth
Unknown
Elevation
Unknown
Doppler factor
Unknown
Orbital elements
Apogee altitude
361.147 km
Perigee altitude
358.838 km
Semi-major axis
6,738.13 km
Eccentricity
0.00017
Inclination
53.1591°
RAAN
331.4023°
Arg. of periapsis
73.6391°
True anomaly
286.46268°
Mean anomaly
286.4815°
Eccentric anomaly
286.47209°
Mean motion
3.92405 °/min
Orbital period
91.74 mins
BSTAR
-3.2831e-7
Loading maneuver chart data...
Computing Atmospheric mass density...
Loading historical data...
Loading historical data...
Loading historical data...
Loading historical data...
Loading historical data...
Loading historical data...
Loading historical data...

Documentation

Showing up to 5 results
|